[[{"header":{"parameterUnit":"m.s-1","parameterCategory":1,"la1":30.2992,"la2":30.254,"lo1":-89.0895,"lo2":-89.0443,"dy":0.0025,"dx":0.0025,"nx":19,"ny":19,"refTime":"2026-03-18T21:00:00:Z","depth":0,"parameterNumber":2,"parameterNumberName":"U-component_of_WINDS"},"data":[0,0,0,0.1437,0.1439,0.1544,0.1544,0.1661,0.1662,0,0,0,0,0,0,0,0,0,0,0,0.1395,0.1396,0.1437,0.1439,0.1544,0.1544,0.1661,0.1662,0,0,0,0,0,0,0,0,0,0,0,0.1395,0.1395,0.1396,0.144,0.1544,0.1544,0.1661,0.1588,0,0,0,0,0,0,0,0,0,0,0.149,0.144,0.1395,0.1396,0.144,0.1543,0.1544,0.1585,0.1593,0.1607,0,0.1615,0,0.164,0.1669,0.1669,0,0,0,0.1448,0.1433,0.1471,0.1396,0.1441,0.1543,0.1499,0.159,0.1598,0.1617,0.1617,0.1622,0.1642,0.167,0.167,0.1719,0.1718,0,0,0.1442,0.1408,0.1465,0.1476,0.1458,0.1496,0.1502,0.1595,0.1594,0.1617,0.1625,0.1644,0.167,0.1671,0.1719,0.1719,0,0,0,0.142,0.1404,0.144,0.1471,0.1491,0.1498,0.1506,0.1589,0.1604,0.1626,0.1646,0.1671,0.1672,0.1719,0.1719,0.1677,0,0,0,0.1417,0.1391,0.1437,0.1418,0.1489,0.1541,0.1498,0.1597,0.1609,0.1645,0.1671,0.1673,0.1719,0.1719,0.1678,0.1663,0,0,0,0.1392,0.1388,0.14,0.1416,0.1459,0.1541,0.1561,0.1601,0.162,0.1669,0.1673,0.172,0.1719,0.168,0.1665,0.1665,0,0,0,0.1357,0.1362,0.1398,0.1412,0.1458,0.1514,0.1561,0.1604,0.1641,0.1671,0.1719,0.1719,0.168,0.1667,0.1666,0.1658,0.1651,0,0,0.1344,0.1359,0.137,0.1405,0.1446,0.1501,0.1535,0.1602,0.1638,0.169,0.1692,0.1678,0.1665,0.1665,0.1628,0.1623,0,0,0,0.1354,0.1361,0.1379,0.1412,0.1462,0.1504,0.1568,0.1593,0.1638,0.1657,0.1679,0.1673,0.1674,0.1672,0.1667,0.167,0.1716,0.1717,0.1717,0.1288,0.1333,0.1354,0.1411,0.1442,0.1508,0.1538,0.1582,0.162,0.1624,0.1639,0.1611,0.1607,0.1604,0.1607,0.1639,0.1639,0.1639,0.1639,0.1274,0.1291,0.1339,0.1376,0.1423,0.1455,0.1519,0.1543,0.158,0.1604,0.1607,0.1628,0.1597,0.1601,0.1636,0.1637,0.1637,0.1637,0.1638,0.1235,0.1251,0.128,0.1332,0.1367,0.1426,0.1458,0.1501,0.1542,0.1545,0.1566,0.1566,0.1572,0.1552,0.1552,0.1552,0.1552,0.1552,0.1552,0.1183,0.1217,0.1239,0.1292,0.1319,0.1359,0.1425,0.1453,0.1494,0.1523,0.1523,0.1559,0.1585,0.1591,0.155,0.1551,0.1551,0.1551,0.1551,0.115,0.1164,0.1197,0.1224,0.129,0.1321,0.1376,0.1428,0.1457,0.1472,0.1507,0.152,0.1538,0.1542,0.1547,0.1498,0.1498,0.1498,0.1498,0.1116,0.1129,0.1173,0.1212,0.1256,0.1308,0.1345,0.1396,0.1452,0.1473,0.1486,0.1496,0.1498,0.1516,0.152,0.1525,0.1471,0.1471,0.1471,0.1098,0.1117,0.114,0.1194,0.1248,0.1294,0.133,0.1373,0.144,0.1471,0.149,0.1491,0.1507,0.1511,0.1542,0.1548,0.1558,0,0]},{"header":{"parameterUnit":"m.s-1","parameterCategory":1,"la1":30.2992,"la2":30.254,"lo1":-89.0895,"lo2":-89.0443,"dy":0.0025,"dx":0.0025,"nx":19,"ny":19,"refTime":"2026-03-18T21:00:00:Z","depth":0,"parameterNumber":3,"parameterNumberName":"V-component_of_WINDS"},"data":[0,0,0,4.4394,4.4393,4.4325,4.4325,4.4241,4.4241,0,0,0,0,0,0,0,0,0,0,0,4.4419,4.4419,4.4394,4.4393,4.4325,4.4325,4.4242,4.4241,0,0,0,0,0,0,0,0,0,0,0,4.4419,4.4419,4.4419,4.4393,4.4325,4.4325,4.4242,4.4291,0,0,0,0,0,0,0,0,0,0,4.4356,4.4384,4.4419,4.4419,4.4392,4.4325,4.4325,4.4293,4.4288,4.4275,0,4.4267,0,4.4253,4.4236,4.4235,0,0,0,4.4388,4.4389,4.4367,4.4419,4.4392,4.4326,4.4354,4.429,4.4284,4.4268,4.4265,4.4262,4.4251,4.4235,4.4235,4.4182,4.4182,0,0,4.4392,4.4409,4.4371,4.4363,4.4377,4.4357,4.4352,4.4286,4.4284,4.4265,4.426,4.425,4.4235,4.4234,4.4182,4.4182,0,0,0,4.4406,4.4412,4.4391,4.4367,4.4355,4.4355,4.435,4.4287,4.4279,4.4259,4.4249,4.4234,4.4233,4.4182,4.4182,4.4199,0,0,0,4.4408,4.442,4.4393,4.4402,4.4356,4.432,4.4352,4.4284,4.4276,4.425,4.4234,4.4233,4.4182,4.4182,4.4199,4.4204,0,0,0,4.4422,4.4421,4.4414,4.4403,4.4375,4.4321,4.4309,4.4281,4.427,4.4235,4.4232,4.4182,4.4182,4.4198,4.4203,4.4196,0,0,0,4.4441,4.4427,4.4414,4.4395,4.4376,4.4333,4.431,4.4276,4.4249,4.4234,4.4182,4.4182,4.4198,4.4202,4.4196,4.4193,4.4194,0,0,4.4433,4.4427,4.4414,4.4401,4.4365,4.4342,4.4308,4.4265,4.4244,4.4203,4.4202,4.4199,4.4203,4.4196,4.4192,4.4193,0,0,0,4.4417,4.4408,4.4395,4.4372,4.4342,4.4315,4.4277,4.4261,4.4226,4.4228,4.4194,4.4195,4.419,4.4188,4.4189,4.4184,4.4182,4.4182,4.4182,4.4428,4.4406,4.4384,4.4354,4.4332,4.4294,4.4273,4.4245,4.4226,4.4218,4.4206,4.4207,4.4205,4.4205,4.42,4.4203,4.4203,4.4203,4.4203,4.4414,4.4398,4.4378,4.4349,4.4325,4.4299,4.4262,4.425,4.4221,4.4214,4.4208,4.4202,4.4207,4.4201,4.4204,4.4204,4.4203,4.4203,4.4203,4.4419,4.4408,4.4392,4.4358,4.4333,4.4302,4.4277,4.4255,4.4233,4.4228,4.4213,4.4213,4.4209,4.4223,4.4223,4.4223,4.4223,4.4223,4.4223,4.443,4.4412,4.4395,4.4364,4.4347,4.4322,4.4285,4.4267,4.4241,4.4226,4.4226,4.4208,4.4212,4.4214,4.4223,4.4223,4.4223,4.4223,4.4223,4.4424,4.4423,4.4397,4.4381,4.4343,4.4321,4.4294,4.426,4.4241,4.4229,4.4213,4.422,4.4211,4.421,4.4211,4.4219,4.4219,4.4219,4.4219,4.4428,4.4423,4.4392,4.4368,4.4342,4.4316,4.4286,4.4257,4.4226,4.4213,4.4209,4.4209,4.4209,4.4199,4.4199,4.42,4.4204,4.4204,4.4204,4.4423,4.4415,4.4394,4.4368,4.4337,4.4311,4.4282,4.4253,4.4217,4.4203,4.4202,4.4203,4.4202,4.4203,4.4188,4.4187,4.4188,0,0]}]]